RH
33 85 99 100 100 100 100 100 100 95 97 90 100 100 100 100 95 94 100 100 100 100 100 100 100 100 90 94 100 81 73 72 66 66 57 40 40 47 61 60 69 60 47
100 100 100 100 100 100 100 100 100 100 100 98 99 100 100 100 100 100 100 100 100 100 100 100 98 99 100 100 100 98 92 76 66 59 54 44 58 77 86 96 76 82 75
100 100 100 100 100 100 100 100 100 100 100 100 92 97 100 100 100 100 100 100 100 100 100 100 99 100 100 99 100 100 98 84 70 52 48 54 70 86 90 70 41 42 35
100 100 100 100 100 100 87 100 100 100 100 100 100 100 100 100 100 100 100 100 100 100 100 100 100 100 100 100 100 100 100 97 78 65 70 75 75 88 74 59 72 96 43
100 100 100 100 100 100 100 100 100 100 100 100 100 95 100 100 98 98 99 100 100 100 100 100 96 100 99 95 100 100 91 81 67 58 54 85 88 99 72 53 37 62 64
100 100 100 100 100 100 100 100 100 100 100 100 100 100 100 100 100 100 100 98 88 100 100 100 100 100 100 100 100 100 99 83 89 100 84 49 61 44 80 73 83 83 100
100 100 100 100 100 100 100 100 100 100 100 100 100 100 100 100 100 90 100 100 94 100 100 100 100 100 100 100 100 100 98 96 78 64 68 58 52 88 89 95 79 91 98
100 100 100 98 100 100 100 100 100 100 100 100 100 100 100 100 100 100 99 100 83 100 100 100 100 100 100 92 100 90 92 99 60 81 95 100 99 100 100 100 100 80 78
100 100 98 100 100 100 100 100 100 100 100 100 100 88 100 100 100 100 100 100 100 80 79 62 57 65 82 81 95 98 87 86 83 85 80 100 100 100 100 100 100 100 97
100 100 100 91 100 100 100 100 100 100 100 100 100 94 100 100 100 100 100 100 99 100 100 98 90 79 80 92 100 100 100 100 100 100 100 100 100 100 100 97 100 100 100
100 100 100 100 100 100 100 100 100 100 100 100 100 100 94 100 100 100 100 100 100 100 100 100 100 100 90 96 100 100 100 100 100 100 100 100 100 100 92 80 99 100 75
94 100 100 100 100 100 100 100 95 100 100 100 100 100 100 100 100 100 100 100 100 100 100 100 97 100 100 100 100 100 88 100 100 100 100 90 100 100 100 100 88 100 100
100 99 100 100 100 100 100 100 91 98 100 99 95 100 100 100 100 96 100 100 100 100 100 100 100 100 100 100 100 93 96 100 95 98 77 92 98 80 84 100 100 100 100
100 97 93 100 100 100 100 100 100 100 100 100 92 100 100 96 89 100 100 100 100 96 100 100 100 100 100 96 100 86 100 100 100 100 100 100 100 100 100 100 100 67 53
97 89 99 100 99 99 100 96 100 100 100 100 100 100 100 100 100 100 100 100 100 100 100 100 100 100 100 100 99 100 99 100 100 100 100 100 99 100 100 95 100 100 100
100 100 94 100 100 84 99 93 100 100 100 100 100 100 100 100 100 100 100 100 100 100 100 100 100 100 100 100 100 100 100 100 100 100 100 100 100 82 91 100 98 100 90
100 99 92 92 78 71 64 78 97 100 100 100 100 97 90 97 100 97 100 100 100 100 100 100 100 100 100 100 100 100 100 100 100 100 100 100 86 89 98 100 94 70 54
52 82 95 98 84 84 80 76 70 83 100 100 100 100 100 100 99 95 100 100 100 100 100 100 100 100 100 100 100 100 100 100 100 100 100 87 93 100 82 88 96 77 96
32 32 34 39 43 51 56 80 100 99 88 88 95 97 93 97 100 100 100 98 88 89 92 100 100 100 100 100 99 100 100 100 98 95 78 89 98 98 98 95 100 91 86
28 27 25 25 25 27 33 36 33 31 26 36 68 71 64 61 74 83 99 100 100 100 100 100 100 100 100 100 100 100 99 100 100 97 90 100 100 91 74 100 87 89 62
35 29 24 25 19 15 15 16 19 22 22 20 15 12 9 13 28 35 43 57 73 95 92 100 96 99 100 100 100 94 100 99 100 100 100 98 100 100 100 93 79 94 63
33 35 41 37 26 21 15 9 8 8 8 7 8 10 10 8 7 6 7 13 38 69 86 98 100 100 100 100 100 100 100 100 100 100 96 99 98 89 88 98 80 56 39
54 51 43 32 27 21 12 5 4 4 4 3 3 3 4 5 5 7 8 7 7 8 12 24 50 68 76 83 91 100 100 100 100 100 99 99 100 99 83 70 53 42 37
60 50 42 38 30 21 7 4 4 4 3 3 2 2 3 4 4 5 6 8 10 12 11 11 12 15 23 33 43 51 52 55 62 80 80 75 76 55 43 38 33 31 28
59 48 40 32 26 13 5 3 3 3 3 2 2 2 2 2 3 3 4 6 9 16 17 15 16 18 20 24 28 33 38 44 56 59 59 50 40 39 45 43 50 46 41
56 45 35 28 25 8 4 3 3 2 2 2 2 2 2 2 2 3 3 4 5 8 12 17 21 23 23 25 26 27 29 36 43 47 53 57 71 77 78 68 64 64 49
Wind_Speed
100 102 84 88 92 86 73 76 68 57 58 55 50 55 59 58 62 65 64 65 65 61 59 57 63 60 59 49 52 50 52 52 55 57 59 62 64 63 60 59 71 78 74
94 88 84 90 86 92 83 80 67 59 54 53 52 53 57 61 60 62 64 63 57 62 61 60 59 60 58 54 54 51 54 58 60 61 62 66 69 67 67 69 76 79 78
98 90 89 87 77 90 91 82 74 73 73 64 52 55 57 52 54 52 51 54 54 64 56 55 57 60 64 63 61 61 60 63 65 68 67 67 66 66 72 71 70 67 72
105 103 104 91 91 92 89 90 80 82 80 63 62 65 58 58 58 64 61 61 55 65 66 61 59 64 66 65 66 66 72 72 72 73 71 71 71 67 75 80 68 65 94
103 103 103 100 102 96 98 91 87 72 76 71 67 71 71 71 72 72 70 73 67 61 61 66 68 70 71 73 74 73 73 76 77 77 78 75 77 78 82 88 93 84 90
101 113 101 99 97 106 90 94 89 84 86 77 78 80 77 77 74 75 77 74 76 72 69 69 71 70 74 77 71 66 71 74 73 72 81 86 87 90 86 87 86 93 89
114 106 110 105 101 97 100 92 95 98 96 90 89 85 83 83 80 83 81 82 78 80 79 76 76 78 73 76 72 73 79 75 83 81 77 77 77 79 82 86 91 92 92
114 107 114 104 94 103 103 101 91 95 96 96 104 103 92 89 88 83 87 87 89 87 86 82 83 83 78 77 77 84 87 81 81 76 75 74 77 81 84 91 88 92 97
114 103 103 111 100 94 96 104 91 94 99 103 88 100 105 98 94 87 85 87 87 91 94 96 102 99 91 91 91 81 85 76 75 78 79 78 81 86 88 87 89 97 92
114 109 97 100 110 98 99 105 98 101 96 103 102 104 106 103 94 91 94 95 90 82 81 86 85 90 90 84 84 84 80 87 75 76 79 80 88 93 100 97 104 106 98
110 113 110 97 105 112 114 110 105 100 100 96 100 99 106 108 100 94 95 94 89 93 99 96 91 87 87 89 85 80 80 79 88 97 98 105 98 111 117 110 107 96 114
121 124 112 108 103 115 113 113 104 98 99 102 99 97 98 102 102 102 92 97 100 105 101 103 102 100 96 97 104 104 105 105 106 109 114 116 118 119 110 113 110 113 101
123 119 120 115 103 109 117 117 115 107 104 107 104 105 101 100 102 105 104 103 104 103 101 104 104 102 104 106 111 110 113 113 112 114 116 118 115 110 110 107 108 111 116
122 124 124 123 124 116 117 117 115 110 108 107 111 111 109 109 110 111 111 106 108 107 106 104 104 110 110 113 113 113 113 109 114 108 111 111 103 111 116 123 133 135 137
127 127 132 125 127 124 117 124 128 127 126 117 116 114 113 116 117 120 120 117 114 115 113 118 116 116 108 110 117 114 118 118 113 120 114 120 123 121 129 132 135 135 136
133 124 132 129 128 136 131 133 129 130 126 127 128 125 125 123 126 125 126 129 135 129 126 126 132 121 119 108 112 117 118 118 119 123 129 134 136 140 136 141 135 140 150
133 128 133 135 138 139 140 141 138 137 138 139 133 134 137 136 132 133 134 137 137 131 126 127 129 130 130 132 132 126 127 135 134 136 133 136 140 143 148 147 156 160 157
74 115 128 137 135 135 137 145 151 155 153 152 151 149 143 141 142 141 138 137 137 138 138 138 136 134 132 134 136 136 142 142 146 147 149 154 154 154 159 156 161 160 158
17 22 35 52 78 94 108 136 156 167 169 171 168 168 170 165 160 155 151 152 154 155 156 150 151 151 148 148 152 154 156 158 157 160 163 164 164 164 163 155 159 163 165
24 24 25 31 36 55 62 78 89 99 120 142 166 177 187 191 180 178 180 176 171 165 163 162 164 161 159 162 162 167 169 168 166 165 166 165 167 167 159 165 165 163 152
46 39 42 46 47 46 52 63 82 102 105 106 120 132 140 147 160 173 182 193 186 184 182 180 179 175 172 170 170 171 172 174 173 173 170 171 169 169 167 160 154 161 151
51 59 65 61 62 61 61 66 76 85 91 98 110 124 127 127 129 137 144 148 166 189 197 186 184 181 177 173 174 175 173 172 168 176 173 166 160 157 160 162 152 141 132
67 70 72 75 77 76 70 67 71 75 82 84 86 90 99 106 107 114 119 124 135 144 147 154 167 177 180 180 174 170 168 168 169 170 172 171 159 151 142 140 138 122 111
74 78 82 84 85 84 75 67 61 63 63 63 62 59 69 80 84 86 96 104 112 121 129 135 139 140 143 147 150 153 152 149 146 144 136 133 132 126 116 113 108 105 98
80 86 86 88 94 80 72 61 55 54 52 52 53 52 55 60 64 67 72 79 89 99 109 116 124 132 137 138 138 138 136 132 126 124 118 114 112 104 100 98 95 93 87
86 89 90 89 93 78 65 57 52 48 45 45 45 46 47 50 54 58 60 65 70 78 84 87 90 100 109 111 115 119 119 114 110 107 101 94 88 86 87 88 86 81 75
Wind_Direction
203 202 198 205 209 208 205 211 215 224 230 220 224 229 228 230 236 238 235 240 245 243 251 250 253 254 261 261 263 261 261 265 267 273 279 283 291 294 288 283 282 288 289
184 185 200 206 204 208 207 215 222 225 232 232 225 228 230 232 234 235 239 243 242 244 247 249 248 257 257 261 258 258 265 267 274 276 283 290 295 291 285 287 288 287 285
178 187 191 196 203 211 210 212 227 230 236 238 231 235 234 240 236 231 230 232 241 244 251 255 260 260 260 260 258 263 266 272 274 278 285 291 290 286 283 285 286 281 286
186 194 201 199 208 210 220 224 223 232 233 227 225 225 228 229 233 236 233 232 241 249 252 253 256 250 251 254 259 266 269 271 275 280 283 282 279 279 281 288 286 288 296
190 195 198 206 211 211 216 220 222 219 229 225 234 233 233 235 233 233 237 238 242 250 249 257 258 255 254 257 261 266 267 271 275 278 281 277 278 281 284 284 296 292 299
189 196 199 200 204 207 210 216 218 220 230 232 234 234 232 235 237 240 239 244 244 251 256 253 253 255 255 259 263 264 270 274 278 279 278 285 281 288 286 293 293 292 293
191 192 196 198 201 204 212 211 220 225 230 231 234 236 235 236 243 243 244 248 247 249 252 250 253 257 258 259 260 263 268 272 278 283 284 286 287 282 286 288 290 289 291
193 194 197 200 202 205 210 216 220 223 225 231 238 237 239 241 245 246 249 248 251 245 246 249 249 250 252 260 260 265 270 274 275 277 280 276 279 278 283 286 285 292 297
193 196 202 200 205 206 207 211 221 226 229 232 234 236 238 243 244 245 243 244 246 248 252 254 253 257 258 261 267 267 271 275 275 275 280 273 272 276 281 278 280 287 292
197 198 204 211 210 210 211 216 221 225 227 229 233 238 239 241 243 243 242 249 248 246 251 251 255 258 262 259 261 266 268 273 273 271 271 269 275 280 282 284 283 285 286
204 205 211 213 217 219 220 220 222 223 225 228 233 238 243 241 242 245 241 242 242 249 254 255 257 254 259 255 261 264 267 265 266 272 270 279 276 281 283 285 285 278 287
206 206 210 212 214 218 216 221 224 224 226 230 230 232 232 236 242 245 239 246 247 251 253 252 258 256 260 258 262 267 273 269 270 272 276 279 276 279 280 282 285 279 277
205 208 210 214 216 217 220 225 228 229 229 229 232 233 234 239 240 241 241 243 248 246 247 250 252 258 261 261 265 268 268 269 273 274 277 278 278 278 282 277 277 276 278
210 214 214 218 221 222 222 225 229 231 233 233 236 235 238 241 243 243 244 245 249 252 253 253 254 259 262 264 263 266 267 266 271 267 270 267 265 270 272 276 278 282 283
214 216 215 222 225 224 227 230 232 233 234 234 235 235 238 239 242 244 244 246 246 247 249 253 256 254 256 255 261 262 265 265 264 268 263 267 271 268 276 278 279 279 282
217 221 223 225 225 226 228 229 233 233 234 239 239 238 241 241 243 243 245 246 250 253 252 252 258 254 258 254 255 256 262 261 262 263 268 266 270 273 275 276 277 280 283
224 226 225 227 228 228 230 232 234 236 237 238 240 242 242 243 245 245 245 246 246 248 248 247 250 252 256 260 257 256 258 262 264 263 266 268 269 271 275 279 281 283 287
232 234 235 234 236 238 241 240 239 239 239 240 241 242 243 243 242 243 242 242 244 246 247 248 249 251 252 254 255 259 261 262 266 270 271 272 274 276 277 281 281 286 289
237 243 242 241 244 248 251 249 245 244 243 242 243 244 243 245 245 246 248 247 247 249 250 250 251 254 256 257 259 262 264 265 267 271 273 273 274 277 280 284 281 287 289
328 311 293 267 267 248 247 248 246 250 251 250 249 250 249 246 247 246 248 248 250 250 252 252 255 258 258 259 260 262 264 266 268 270 271 275 276 278 280 281 284 285 289
338 332 324 321 299 288 273 260 250 249 248 250 252 253 253 251 250 251 251 247 249 251 253 255 256 258 258 261 264 265 265 267 268 271 272 275 275 278 282 283 284 286 290
337 334 331 329 323 312 296 276 268 264 261 259 257 256 255 257 257 255 253 252 250 249 249 252 255 257 260 262 262 265 265 268 270 270 272 276 277 277 281 284 286 286 288
335 332 331 330 327 319 302 291 281 275 271 270 267 262 258 257 257 255 255 255 254 252 251 252 253 254 257 258 261 262 264 266 268 270 271 273 277 278 280 281 283 285 285
334 333 332 332 332 322 309 304 295 289 284 278 272 263 256 255 256 253 253 252 253 254 255 254 254 255 256 257 259 261 263 265 267 269 270 272 274 279 277 279 280 282 284
336 335 334 336 333 322 316 311 305 298 291 284 278 272 262 256 254 252 249 247 247 247 251 253 254 255 256 256 258 260 262 264 265 267 267 268 271 274 276 279 280 282 284
337 336 337 339 339 325 323 318 312 306 297 290 283 274 267 260 255 252 250 246 244 244 244 247 249 251 253 255 255 256 257 259 262 264 266 270 272 273 275 277 279 281 283